THOR ABLESTAR DEB, 244

Orbit data source: Space-Track

THOR ABLESTAR DEB, 244 is space debris in LEO originally from a launch on Thu, 29 Jun 1961 UTC launched from the Air Force Eastern Test Range (AFETR). Debris objects in space refer to the collection of defunct objects orbiting the Earth. Examples of debris include non-operational satellites, rocket bodies, and fragments generated from explosions, collisions, or faulty payload assembly.

Loading next visibility...
Identifier
244, 1961-015BZ
Orbit
LEO
Country
Flag of USUS
Related business
Manufacturer
Unknown
Mission
Spacecraft
Bus & Motor
Unknown
Mass
Unknown
Launch date (UTC)
1961-06-29 (64 years ago)
Launch vehicle
Unknown
Launch site
Air Force Eastern Test Range (AFETR)
Object type
Payload
Rocket body
Debris
Shape & HBR
Unknown shape, 0.2 m
Radar Cross Section
Small (<0.1 m²)

Expand to show TLE details & history
Last TLE update: 10 hours ago

TLE from 10 hours ago
0 THOR ABLESTAR DEB
1 00244U 61015BZ  25287.80373657  .00000186  00000-0  18928-3 0  9992
2 00244  66.8386 112.4837 0075885 258.9715 100.2825 13.95616443264894
Epoch: 2025-10-14T19:17Z
TLE epoch observation values (Epoch: 2025-10-14T19:17:22.839Z)
Latitude
-0°
Longitude
159.55162°
Altitude
921.375 km
Speed
7.386 km/s
True Right ascension
07h 29m 56s
True Declination
0° 00' 00"
Sunlit
Object was in daylight at epoch
Visualization orbit readout
Latitude
Unknown
Longitude
Unknown
Altitude
Unknown
Speed
Unknown
Apparent Right ascension
Unknown
Apparent Declination
Unknown
Sunlit
N/A
Visualization observer readout
Local Sidereal Time
00:11:11
Azimuth
Unknown
Elevation
Unknown
Doppler factor
Unknown
Orbital elements
Apogee altitude
962.686 km
Perigee altitude
852.113 km
Semi-major axis
7,285.537 km
Eccentricity
0.00759
Inclination
66.8386°
RAAN
112.4837°
Arg. of periapsis
258.9715°
True anomaly
101.13663°
Mean anomaly
100.2825°
Eccentric anomaly
100.70972°
Mean motion
3.4902 °/min
Orbital period
103.15 mins
BSTAR
0.00018928

Documentation

Showing up to 5 results
|